User: anonymous   Login
Location: Unspecified
(37.5808°N, 0.0000°E)
Time: 12:26:55
(UTC+00:00)
Language:

NOAA 19 - Orbit

View from above orbital plane
View from above orbital plane
View from above satellite
View from above satellite

Ground track
Ground track

The orbit is defined by the following mean orbital elements,

1 33591U          26088.20196737 +.00000000 +00000-0 +45722-4 0 00007
2 33591  98.9571 159.0025 0012745 255.0943 104.8818 14.13460532    00
Epoch (UTC): 29 March 2026 04:50:49
Eccentricity: 0.0012745
inclination: 98.9571°
perigee height: 838 km
apogee height: 857 km
right ascension of ascending node: 159.0025°
argument of perigee: 255.0943°
revolutions per day: 14.13460532
mean anomaly at epoch: 104.8818°

The dashed part of the orbit path shows where the satellite is in the earth's shadow,  

DLR